Weather History for Leadville, CO

Change the Weather History Date:

Tuesday, November 20, 2012

  Actual Average Record
Temperature  
Mean Temperature 33 °F -  
Max Temperature 49 °F 35 °F 61 °F (1989)
Min Temperature 17 °F 10 °F -9 °F (1985)
Degree Days  
Heating Degree Days 32 43  
Month to date heating degree days 713 770  
Since 1 July heating degree days 2673 2959  
Cooling Degree Days 0 0  
Month to date cooling degree days 0 0  
Year to date cooling degree days 0 0  
Moisture  
Dew Point 10 °F    
Average Humidity 43    
Maximum Humidity 67    
Minimum Humidity 19    
Precipitation  
Precipitation 0.00 in 0.02 in 0.55 in (1977)
Month to date precipitation 0.16 0.53  
Year to date precipitation 10.30 11.47  
Sea Level Pressure  
Sea Level Pressure 30.20 in    
Wind  
Wind Speed 6 mph (NNE)    
Max Wind Speed 13 mph    
Max Gust Speed 17 mph    
Visibility 10 miles    
Events      
T = Trace of Precipitation, MM = Missing Value Source: NWS Daily Summary

Daily Weather History Graph

Daily Weather History Graph

Search for Another Location

Airport:

Trip Planner

Search our weather history database for the weather conditions in past years. The results will help you decide how hot, cold, wet, or windy it might be!

Date:

Astronomy

Nov. 20, 2012 Rise Set
Actual Time 6:54 AM MST 4:46 PM MST
Civil Twilight 6:25 AM MST 5:15 PM MST
Nautical Twilight 5:53 AM MST 5:48 PM MST
Astronomical Twilight 5:21 AM MST 6:20 PM MST
Moon 12:31 PM MST (11/20) No Moon Set
Length of Visible Light 10h 50m
Length of Day
9h 52m
First Quarter, 52% of the Moon is Illuminated
Nov 20
First Quarter
Nov 28
Full
Dec 6
Last Quarter
Dec 13
New
Dec 19
First Quarter

Hourly Weather History & Observations

Time (MST) Temp. Windchill Dew Point Humidity Pressure Visibility Wind Dir Wind Speed Gust Speed Precip Events Conditions
12:53 AM 25.0 °F 15.5 °F 10.0 °F 53% 30.20 in 10.0 mi NE 9.2 mph - N/A   Clear
1:53 AM 25.0 °F 15.5 °F 10.9 °F 55% 30.18 in 10.0 mi NNE 9.2 mph - N/A   Clear
2:53 AM 26.1 °F 16.2 °F 10.9 °F 53% 30.19 in 10.0 mi NNE 10.4 mph - N/A   Clear
3:53 AM 24.1 °F 13.1 °F 10.0 °F 55% 30.21 in 10.0 mi NE 11.5 mph - N/A   Clear
4:53 AM 23.0 °F 12.4 °F 9.0 °F 55% 30.27 in 10.0 mi NE 10.4 mph - N/A   Clear
5:53 AM 21.0 °F 10.6 °F 9.0 °F 60% 30.32 in 10.0 mi NE 9.2 mph - N/A   Clear
6:53 AM 18.0 °F 8.7 °F 8.1 °F 65% 30.35 in 10.0 mi ENE 6.9 mph - N/A   Clear
7:53 AM 21.9 °F 17.2 °F 10.0 °F 60% 30.33 in 10.0 mi NNW 3.5 mph - N/A   Clear
8:53 AM 33.1 °F - 12.0 °F 42% 30.26 in 10.0 mi Calm Calm - N/A   Clear
9:53 AM 39.9 °F 33.9 °F 7.0 °F 26% 30.22 in 10.0 mi NNW 9.2 mph - N/A   Clear
10:53 AM 43.0 °F 38.2 °F 9.0 °F 25% 30.17 in 10.0 mi North 8.1 mph - N/A   Clear
11:53 AM 46.9 °F - 10.9 °F 23% 30.14 in 10.0 mi NW 8.1 mph - N/A   Clear
12:53 PM 46.9 °F - 9.0 °F 21% 30.10 in 10.0 mi NW 8.1 mph - N/A   Clear
1:53 PM 48.0 °F - 9.0 °F 21% 30.06 in 10.0 mi NNW 3.5 mph - N/A   Clear
2:53 PM 48.0 °F - 10.9 °F 22% 30.06 in 10.0 mi NNW 8.1 mph - N/A   Clear
3:53 PM 46.0 °F 41.9 °F 12.0 °F 25% 30.09 in 10.0 mi NW 8.1 mph - N/A   Clear
4:53 PM 37.9 °F 33.5 °F 12.9 °F 36% 30.15 in 10.0 mi North 5.8 mph - N/A   Clear
5:53 PM 28.9 °F 25.2 °F 12.0 °F 49% 30.24 in 10.0 mi NE 3.5 mph - N/A   Clear
6:53 PM 28.0 °F 20.8 °F 12.9 °F 53% 30.28 in 10.0 mi NNE 6.9 mph - N/A   Clear
7:53 PM 28.0 °F - 10.9 °F 49% 30.26 in 10.0 mi Calm Calm - N/A   Clear
8:53 PM 23.0 °F 18.4 °F 10.9 °F 60% 30.22 in 10.0 mi NE 3.5 mph - N/A   Clear
9:53 PM 28.0 °F - 12.0 °F 51% 30.13 in 10.0 mi Calm Calm - N/A   Clear
10:53 PM 21.0 °F 16.2 °F 10.9 °F 65% 30.15 in 10.0 mi NE 3.5 mph - N/A   Clear
11:53 PM 21.0 °F 14.6 °F 10.0 °F 63% 30.12 in 10.0 mi NE 4.6 mph - N/A   Clear